{"data":{"norad_id":52787,"intl_designator":"2022-058C","name":"GEESAT-1 03","alt_names":[],"object_type":"PAYLOAD","status":"ACTIVE","operator":null,"country":"PRC","launch_date":"2022-06-02","launch_site_code":"XICLF","launch_vehicle":null,"mission":null,"orbit_class":"UNKNOWN","rcs_meters":null,"size_class":null,"mass_kg":null,"dimensions":null,"purposes":[],"wikipedia_slug":null,"has_3d_model":false,"image_url":null,"decayed_at":null,"tle_current":{"epoch":"2026-05-25T03:54:30.119040Z","epoch_age_seconds":57183,"freshness":"FRESH","line1":"1 52787U 22058C   26145.16284860  .00001547  00000+0  22448-3 0  9998","line2":"2 52787  49.9882 307.7286 0008004  17.5920 342.5293 14.81287198216523","mean_motion":14.81287198,"eccentricity":0.0008004,"inclination_deg":49.9882,"raan_deg":307.7286,"arg_perigee_deg":17.592,"mean_anomaly_deg":342.5293,"bstar":0.00022448,"rev_number":21652,"period_min":97.21274861109,"perigee_km":619.6584965647,"apogee_km":630.8695409155,"semimajor_km":7003.4010187401,"source":"CELESTRAK","updated_at":"2026-05-25T13:37:57.888822Z"}}}